Regional Weather Roundup
Issued by NWS

Home | Current Version | Previous Version | Graphics & Text | Print | Product List | Glossary On
Versions: 1 2 3 4 5 6 7 8 9 10 11 12 13 14 15 16 17 18 19 20 21 22 23 24 25 26 27 28 29 30 31 32 33 34 35 36 37 38 39 40 41 42 43 44 45 46 47 48 49 50
658
ASUS44 KMEG 272110
RWRTN
TENNESSEE HOURLY STATE WEATHER ROUNDUP
NATIONAL WEATHER SERVICE MEMPHIS TN
400 PM CDT WED JUL 27 2016

TNZ002-004-019-021-049-052-054-088>092-272200-
WEST TENNESSEE

CITY           SKY/WX    TMP DP  RH WIND       PRES   REMARKS
MEMPHIS INTL   TSTM      81  73  76 CALM      29.90S
NWS MEMPHIS      N/A     78 N/A N/A MISG        N/A
JACKSON        MOSUNNY   91  75  59 VRB7      29.89F HX 101
DYERSBURG      MOSUNNY  N/A N/A N/A MISG        N/A
UNION CITY     SUNNY     93  77  59 SE12      29.88S HX 107
PARIS          SUNNY     90  75  62 S6        29.91F HX 100
LEXINGTON      MOSUNNY   91  72  52 VRB7      29.90F HX  98
$$

TNZ008-025-027-028-033-062-065-066-272200-
NORTH MIDDLE TENNESSEE

CITY           SKY/WX    TMP DP  RH WIND       PRES   REMARKS
NASHVILLE      PTSUNNY   88  72  58 E6        29.95S HX  94
CLARKSVILLE    TSTM      81  73  76 S7        29.92S
SMYRNA         CLOUDY    94  73  50 VRB5      29.95F HX 103
COOKEVILLE     SUNNY     81  75  83 VRB3      29.99F
CROSSVILLE     CLOUDY    85  73  67 CALM      30.04F HX  91
$$

TNZ061-075-076-078-094-096-097-272200-
SOUTH MIDDLE TENNESSEE

CITY           SKY/WX    TMP DP  RH WIND       PRES   REMARKS
FAYETTEVILLE   SUNNY     90  70  51 S12G21    29.97F HX  95
TULLAHOMA      MOSUNNY   90  70  51 S7        29.99F HX  95
WINCHESTER     MOSUNNY   91  72  52 S14       29.98F HX  98
MCMINNVILLE    SUNNY     90  79  70 NE5       29.98F HX 105
COLUMBIA       MOSUNNY   95  73  49 S12       29.93F HX 105
SHELBYVILLE    MOSUNNY   90  73  58 S9        29.97F HX  98
$$

TNZ017-018-042-046-047-272200-
NORTHEAST TENNESSEE

CITY           SKY/WX    TMP DP  RH WIND       PRES   REMARKS
TRI CITIES     MOSUNNY   96  66  37 W9        29.97F HX  99
ELIZABETHTON   MOSUNNY   95  68  41 NW10      29.97F HX  99
$$

TNZ012-013-036-069-073-074-272200-
CENTRAL EAST TENNESSEE

CITY           SKY/WX    TMP DP  RH WIND       PRES   REMARKS
KNOXVILLE      PTSUNNY   95  67  39 SW8       29.95F HX  99
OAK RIDGE      SUNNY     97  64  33 VRB3      29.97F HX  99
GATLINBURG       N/A     97  66  36 W9        29.95S HX 100
MORRISTOWN     MOSUNNY   95  64  36 SW5G14    29.96F HX  97
$$

TNZ083-085-099-272200-
SOUTHEAST TENNESSEE

CITY           SKY/WX    TMP DP  RH WIND       PRES   REMARKS
CHATTANOOGA    MOSUNNY   94  68  42 S10G17    29.96F HX  98
$$

SKY/WX REPORTED AS FAIR MEANS FEW OR NO CLOUDS BELOW
12 THOUSAND FEET.





USA.gov is the U.S. government's official web portal to all federal, state and local government web resources and services.